QPF
0.01 0.01 0.02 0.02 0.01 0.01 0.00 0.00 0.00 0.00 0.00 0.00 0.00 0.00 0.00 0.00 0.00 0.00 0.00 0.00 0.00 0.00 0.00 0.00 0.00 0.00 0.00 0.00 0.00 0.01 0.01 0.01 0.01 0.01 0.01 0.02 0.02 0.03
0.02 0.02 0.02 0.01 0.00 0.00 0.01 0.01 0.01 0.01 0.00 0.00 0.00 0.00 0.00 0.00 0.00 0.00 0.00 0.00 0.00 0.00 0.00 0.00 0.00 0.00 0.00 0.01 0.01 0.01 0.01 0.01 0.01 0.02 0.02 0.02 0.03 0.03
0.01 0.01 0.01 0.01 0.01 0.01 0.01 0.01 0.00 0.00 0.00 0.00 0.00 0.00 0.00 0.00 0.00 0.00 0.00 0.00 0.00 0.00 0.00 0.00 0.00 0.00 0.00 0.00 0.01 0.01 0.01 0.02 0.02 0.02 0.02 0.03 0.03 0.03
0.01 0.01 0.01 0.01 0.01 0.01 0.01 0.00 0.00 0.00 0.00 0.00 0.00 0.00 0.00 0.00 0.00 0.00 0.00 0.00 0.00 0.00 0.00 0.00 0.00 0.00 0.00 0.01 0.01 0.01 0.01 0.01 0.01 0.01 0.02 0.02 0.03 0.03
0.01 0.01 0.01 0.01 0.00 0.00 0.00 0.00 0.00 0.00 0.00 0.00 0.00 0.00 0.00 0.00 0.00 0.00 0.00 0.00 0.00 0.00 0.00 0.00 0.00 0.00 0.00 0.01 0.01 0.01 0.01 0.01 0.01 0.01 0.02 0.02 0.02 0.03
0.01 0.01 0.01 0.01 0.00 0.00 0.00 0.00 0.00 0.00 0.00 0.00 0.00 0.00 0.00 0.00 0.00 0.00 0.00 0.00 0.00 0.00 0.00 0.00 0.00 0.00 0.00 0.00 0.00 0.00 0.00 0.00 0.01 0.01 0.02 0.02 0.02 0.02
0.01 0.01 0.00 0.01 0.00 0.00 0.00 0.00 0.00 0.00 0.00 0.00 0.00 0.00 0.00 0.00 0.00 0.00 0.00 0.00 0.00 0.00 0.00 0.00 0.00 0.00 0.00 0.00 0.00 0.00 0.00 0.01 0.01 0.01 0.02 0.02 0.02 0.03
0.01 0.01 0.01 0.01 0.00 0.00 0.00 0.00 0.00 0.00 0.00 0.00 0.00 0.00 0.00 0.00 0.00 0.00 0.00 0.01 0.01 0.00 0.00 0.00 0.00 0.00 0.00 0.00 0.00 0.00 0.01 0.01 0.01 0.01 0.01 0.02 0.02 0.02
0.00 0.00 0.00 0.00 0.00 0.00 0.00 0.00 0.00 0.00 0.00 0.00 0.00 0.00 0.00 0.00 0.01 0.01 0.01 0.01 0.01 0.01 0.01 0.01 0.00 0.00 0.00 0.00 0.00 0.00 0.01 0.01 0.01 0.01 0.01 0.01 0.01 0.02
0.00 0.00 0.00 0.00 0.00 0.00 0.00 0.00 0.00 0.00 0.00 0.00 0.00 0.00 0.00 0.00 0.01 0.01 0.01 0.01 0.01 0.00 0.01 0.01 0.00 0.00 0.00 0.00 0.00 0.00 0.00 0.00 0.00 0.01 0.01 0.01 0.01 0.02
0.00 0.00 0.00 0.00 0.00 0.00 0.01 0.00 0.00 0.00 0.00 0.00 0.00 0.00 0.00 0.00 0.01 0.01 0.01 0.01 0.01 0.01 0.01 0.01 0.01 0.00 0.00 0.00 0.00 0.00 0.00 0.00 0.00 0.00 0.01 0.01 0.01 0.02
0.01 0.01 0.01 0.00 0.00 0.01 0.01 0.01 0.00 0.00 0.00 0.00 0.00 0.00 0.00 0.00 0.00 0.01 0.01 0.02 0.02 0.01 0.01 0.01 0.01 0.01 0.01 0.00 0.00 0.00 0.00 0.00 0.00 0.00 0.00 0.01 0.01 0.01
0.00 0.00 0.00 0.00 0.00 0.01 0.01 0.01 0.00 0.00 0.00 0.00 0.00 0.00 0.00 0.00 0.00 0.00 0.01 0.01 0.02 0.02 0.01 0.01 0.01 0.01 0.01 0.01 0.00 0.00 0.00 0.00 0.00 0.00 0.00 0.00 0.00 0.01
0.00 0.00 0.00 0.00 0.00 0.00 0.00 0.00 0.00 0.00 0.00 0.00 0.00 0.00 0.00 0.00 0.00 0.00 0.00 0.01 0.01 0.01 0.01 0.01 0.02 0.01 0.02 0.01 0.00 0.00 0.00 0.00 0.00 0.00 0.00 0.00 0.00 0.00
0.00 0.00 0.00 0.00 0.00 0.00 0.00 0.00 0.00 0.00 0.00 0.01 0.01 0.01 0.00 0.00 0.00 0.00 0.00 0.00 0.00 0.00 0.00 0.01 0.01 0.01 0.02 0.02 0.01 0.00 0.00 0.00 0.00 0.00 0.00 0.00 0.00 0.00
0.00 0.00 0.00 0.00 0.00 0.00 0.00 0.00 0.00 0.00 0.01 0.01 0.01 0.00 0.00 0.00 0.00 0.00 0.01 0.00 0.00 0.00 0.00 0.00 0.00 0.01 0.01 0.01 0.01 0.01 0.00 0.00 0.00 0.00 0.00 0.00 0.00 0.00
0.00 0.00 0.00 0.00 0.00 0.00 0.00 0.00 0.00 0.00 0.00 0.00 0.00 0.00 0.01 0.01 0.00 0.00 0.01 0.01 0.01 0.00 0.00 0.00 0.00 0.00 0.00 0.00 0.00 0.00 0.00 0.00 0.00 0.00 0.00 0.00 0.00 0.00
0.00 0.00 0.00 0.00 0.00 0.00 0.00 0.00 0.00 0.00 0.00 0.00 0.00 0.01 0.01 0.01 0.01 0.01 0.01 0.01 0.01 0.01 0.01 0.00 0.00 0.00 0.00 0.00 0.00 0.00 0.00 0.00 0.00 0.00 0.00 0.00 0.00 0.00
0.00 0.00 0.00 0.00 0.00 0.00 0.00 0.00 0.00 0.00 0.00 0.00 0.00 0.01 0.01 0.01 0.01 0.01 0.01 0.01 0.01 0.01 0.00 0.00 0.01 0.01 0.01 0.00 0.00 0.00 0.00 0.00 0.00 0.00 0.00 0.01 0.00 0.00
0.00 0.00 0.00 0.00 0.00 0.00 0.00 0.00 0.00 0.00 0.00 0.00 0.00 0.00 0.01 0.01 0.01 0.01 0.01 0.01 0.01 0.01 0.00 0.00 0.00 0.01 0.01 0.01 0.01 0.00 0.00 0.00 0.00 0.00 0.00 0.00 0.00 0.00
0.00 0.00 0.00 0.00 0.00 0.00 0.00 0.00 0.00 0.00 0.00 0.00 0.00 0.00 0.00 0.00 0.01 0.01 0.01 0.01 0.01 0.01 0.00 0.00 0.00 0.00 0.01 0.01 0.01 0.00 0.00 0.00 0.01 0.01 0.01 0.01 0.00 0.00
0.00 0.00 0.00 0.00 0.00 0.00 0.00 0.00 0.00 0.00 0.00 0.00 0.00 0.00 0.00 0.00 0.01 0.01 0.01 0.01 0.01 0.00 0.00 0.00 0.00 0.00 0.01 0.01 0.00 0.00 0.00 0.00 0.00 0.00 0.01 0.02 0.02 0.02
0.00 0.00 0.00 0.00 0.00 0.00 0.00 0.00 0.00 0.00 0.00 0.00 0.00 0.00 0.00 0.00 0.00 0.01 0.01 0.01 0.01 0.00 0.00 0.00 0.00 0.00 0.00 0.00 0.00 0.00 0.00 0.00 0.00 0.00 0.00 0.00 0.01 0.01
MSLP
1018.00 1018.44 1018.80 1019.09 1019.31 1019.48 1019.64 1019.82 1020.06 1020.36 1020.73 1021.14 1021.58 1022.00 1022.38 1022.70 1022.94 1023.10 1023.19 1023.21 1023.18 1023.11 1023.00 1022.85 1022.67 1022.45 1022.20 1021.92 1021.61 1021.29 1020.97 1020.64 1020.31 1019.96 1019.59 1019.18 1018.72 1018.21
1017.40 1017.88 1018.28 1018.61 1018.87 1019.08 1019.27 1019.47 1019.72 1020.03 1020.38 1020.78 1021.20 1021.60 1021.97 1022.26 1022.48 1022.62 1022.69 1022.70 1022.66 1022.59 1022.49 1022.37 1022.21 1022.03 1021.81 1021.56 1021.28 1020.98 1020.67 1020.34 1020.00 1019.63 1019.23 1018.78 1018.28 1017.73
1016.81 1017.31 1017.76 1018.13 1018.43 1018.68 1018.91 1019.14 1019.40 1019.71 1020.06 1020.44 1020.83 1021.20 1021.53 1021.79 1021.97 1022.08 1022.12 1022.11 1022.05 1021.98 1021.88 1021.77 1021.64 1021.49 1021.31 1021.10 1020.86 1020.60 1020.30 1019.99 1019.64 1019.26 1018.84 1018.36 1017.83 1017.25
1016.27 1016.80 1017.27 1017.67 1018.01 1018.30 1018.55 1018.81 1019.08 1019.39 1019.73 1020.09 1020.46 1020.80 1021.09 1021.31 1021.45 1021.53 1021.53 1021.49 1021.42 1021.33 1021.23 1021.12 1021.01 1020.89 1020.74 1020.57 1020.38 1020.15 1019.89 1019.59 1019.26 1018.88 1018.45 1017.96 1017.41 1016.81
1015.83 1016.37 1016.85 1017.27 1017.63 1017.94 1018.21 1018.48 1018.75 1019.05 1019.38 1019.72 1020.06 1020.37 1020.63 1020.83 1020.94 1020.99 1020.97 1020.91 1020.81 1020.71 1020.60 1020.49 1020.39 1020.27 1020.15 1020.01 1019.85 1019.65 1019.42 1019.15 1018.84 1018.48 1018.05 1017.57 1017.02 1016.42
1015.54 1016.06 1016.54 1016.95 1017.31 1017.61 1017.87 1018.13 1018.39 1018.68 1018.99 1019.31 1019.63 1019.92 1020.16 1020.34 1020.45 1020.48 1020.45 1020.38 1020.27 1020.15 1020.03 1019.91 1019.80 1019.69 1019.58 1019.45 1019.30 1019.13 1018.92 1018.68 1018.39 1018.04 1017.63 1017.17 1016.64 1016.05
1015.39 1015.88 1016.33 1016.72 1017.04 1017.31 1017.55 1017.77 1018.01 1018.26 1018.54 1018.84 1019.15 1019.43 1019.67 1019.85 1019.96 1020.01 1019.98 1019.91 1019.80 1019.67 1019.54 1019.41 1019.28 1019.16 1019.03 1018.90 1018.76 1018.59 1018.39 1018.16 1017.89 1017.56 1017.18 1016.73 1016.23 1015.68
1015.35 1015.81 1016.21 1016.55 1016.82 1017.04 1017.22 1017.40 1017.59 1017.80 1018.05 1018.33 1018.62 1018.90 1019.15 1019.34 1019.48 1019.54 1019.54 1019.49 1019.39 1019.26 1019.12 1018.98 1018.83 1018.69 1018.54 1018.39 1018.23 1018.05 1017.85 1017.62 1017.35 1017.03 1016.67 1016.25 1015.78 1015.26
1015.39 1015.79 1016.14 1016.41 1016.62 1016.77 1016.89 1017.01 1017.15 1017.31 1017.52 1017.77 1018.04 1018.32 1018.58 1018.80 1018.97 1019.07 1019.11 1019.08 1019.01 1018.90 1018.76 1018.61 1018.45 1018.28 1018.11 1017.93 1017.74 1017.53 1017.31 1017.06 1016.78 1016.46 1016.10 1015.70 1015.26 1014.78
1015.42 1015.78 1016.06 1016.27 1016.42 1016.51 1016.57 1016.63 1016.71 1016.83 1016.99 1017.21 1017.46 1017.73 1017.99 1018.23 1018.43 1018.57 1018.65 1018.66 1018.63 1018.55 1018.43 1018.28 1018.11 1017.93 1017.73 1017.52 1017.30 1017.06 1016.80 1016.52 1016.22 1015.88 1015.52 1015.12 1014.69 1014.23
1015.41 1015.72 1015.96 1016.12 1016.22 1016.26 1016.28 1016.29 1016.32 1016.39 1016.52 1016.69 1016.91 1017.16 1017.42 1017.66 1017.88 1018.04 1018.16 1018.22 1018.23 1018.18 1018.09 1017.97 1017.81 1017.62 1017.41 1017.18 1016.92 1016.65 1016.35 1016.04 1015.70 1015.34 1014.95 1014.54 1014.10 1013.65
1015.34 1015.62 1015.83 1015.97 1016.04 1016.06 1016.05 1016.04 1016.04 1016.07 1016.15 1016.28 1016.46 1016.67 1016.90 1017.13 1017.34 1017.52 1017.67 1017.76 1017.81 1017.81 1017.76 1017.66 1017.53 1017.36 1017.15 1016.90 1016.63 1016.32 1015.99 1015.63 1015.25 1014.85 1014.43 1013.99 1013.54 1013.09
1015.26 1015.52 1015.72 1015.86 1015.94 1015.97 1015.96 1015.94 1015.92 1015.92 1015.96 1016.03 1016.15 1016.31 1016.49 1016.68 1016.87 1017.04 1017.19 1017.31 1017.39 1017.43 1017.43 1017.37 1017.27 1017.13 1016.93 1016.69 1016.40 1016.07 1015.71 1015.31 1014.89 1014.45 1013.99 1013.52 1013.05 1012.58
1015.24 1015.50 1015.71 1015.87 1015.98 1016.03 1016.04 1016.03 1016.00 1015.98 1015.98 1016.00 1016.05 1016.13 1016.24 1016.36 1016.50 1016.65 1016.78 1016.91 1017.01 1017.08 1017.12 1017.11 1017.05 1016.94 1016.76 1016.53 1016.24 1015.89 1015.50 1015.07 1014.60 1014.12 1013.62 1013.12 1012.62 1012.13
1015.36 1015.63 1015.87 1016.07 1016.22 1016.31 1016.35 1016.35 1016.32 1016.27 1016.22 1016.18 1016.15 1016.14 1016.16 1016.20 1016.27 1016.36 1016.47 1016.58 1016.69 1016.78 1016.85 1016.88 1016.85 1016.77 1016.62 1016.40 1016.10 1015.74 1015.32 1014.86 1014.35 1013.83 1013.30 1012.77 1012.25 1011.75
1015.71 1016.00 1016.27 1016.50 1016.69 1016.82 1016.89 1016.90 1016.86 1016.78 1016.67 1016.55 1016.43 1016.33 1016.25 1016.20 1016.19 1016.22 1016.28 1016.36 1016.46 1016.56 1016.65 1016.70 1016.70 1016.63 1016.49 1016.27 1015.97 1015.59 1015.15 1014.65 1014.11 1013.55 1012.99 1012.43 1011.90 1011.38
1016.32 1016.63 1016.92 1017.18 1017.39 1017.55 1017.63 1017.63 1017.57 1017.44 1017.27 1017.07 1016.86 1016.66 1016.48 1016.34 1016.25 1016.20 1016.21 1016.26 1016.34 1016.43 1016.51 1016.57 1016.57 1016.51 1016.37 1016.14 1015.82 1015.42 1014.94 1014.41 1013.84 1013.25 1012.66 1012.08 1011.52 1011.00
1017.19 1017.50 1017.80 1018.06 1018.28 1018.43 1018.49 1018.47 1018.36 1018.19 1017.95 1017.67 1017.37 1017.07 1016.80 1016.58 1016.41 1016.30 1016.26 1016.27 1016.32 1016.39 1016.46 1016.50 1016.50 1016.42 1016.26 1016.00 1015.65 1015.21 1014.70 1014.14 1013.53 1012.91 1012.29 1011.69 1011.11 1010.57
1018.24 1018.53 1018.82 1019.06 1019.25 1019.36 1019.39 1019.32 1019.16 1018.91 1018.60 1018.25 1017.87 1017.50 1017.16 1016.87 1016.64 1016.48 1016.40 1016.37 1016.39 1016.44 1016.48 1016.50 1016.46 1016.35 1016.16 1015.87 1015.48 1015.00 1014.45 1013.85 1013.21 1012.56 1011.91 1011.28 1010.68 1010.12
1019.36 1019.63 1019.87 1020.07 1020.21 1020.26 1020.23 1020.09 1019.87 1019.56 1019.19 1018.77 1018.33 1017.91 1017.52 1017.18 1016.91 1016.72 1016.60 1016.55 1016.54 1016.56 1016.57 1016.55 1016.48 1016.33 1016.10 1015.76 1015.33 1014.82 1014.23 1013.59 1012.92 1012.24 1011.57 1010.91 1010.29 1009.68
1020.45 1020.67 1020.85 1020.99 1021.06 1021.04 1020.94 1020.74 1020.45 1020.08 1019.66 1019.20 1018.73 1018.27 1017.86 1017.50 1017.21 1017.00 1016.87 1016.79 1016.76 1016.75 1016.73 1016.67 1016.56 1016.37 1016.10 1015.72 1015.26 1014.71 1014.09 1013.43 1012.74 1012.03 1011.34 1010.65 1009.99 1009.34
1021.39 1021.55 1021.67 1021.74 1021.74 1021.65 1021.48 1021.22 1020.88 1020.48 1020.03 1019.55 1019.06 1018.60 1018.18 1017.82 1017.53 1017.32 1017.17 1017.08 1017.03 1016.99 1016.94 1016.85 1016.71 1016.48 1016.17 1015.77 1015.28 1014.71 1014.08 1013.40 1012.70 1011.98 1011.27 1010.56 1009.86 1009.17
1022.13 1022.23 1022.29 1022.29 1022.22 1022.07 1021.85 1021.55 1021.19 1020.77 1020.31 1019.83 1019.36 1018.91 1018.51 1018.17 1017.89 1017.68 1017.52 1017.42 1017.35 1017.28 1017.20 1017.09 1016.91 1016.66 1016.33 1015.91 1015.41 1014.84 1014.21 1013.54 1012.84 1012.12 1011.40 1010.67 1009.95 1009.22
Thickness
5572 5566 5560 5555 5549 5544 5538 5533 5529 5527 5527 5520 5510 5503 5495 5489 5483 5478 5474 5470 5464 5460 5457 5453 5450 5447 5444 5441 5438 5436 5434 5432 5430 5429 5428 5428 5428 5428
5566 5560 5555 5549 5543 5536 5530 5525 5520 5517 5516 5513 5503 5496 5488 5481 5475 5470 5466 5461 5456 5452 5447 5443 5439 5436 5432 5429 5426 5423 5420 5418 5416 5414 5413 5413 5412 5412
5561 5555 5550 5543 5537 5530 5524 5518 5513 5508 5505 5503 5494 5487 5479 5473 5467 5461 5456 5451 5448 5442 5437 5432 5427 5423 5419 5415 5412 5408 5405 5403 5400 5398 5397 5395 5394 5394
5557 5550 5544 5537 5531 5525 5518 5513 5507 5501 5496 5492 5486 5478 5470 5463 5457 5451 5446 5441 5436 5431 5425 5419 5415 5410 5406 5401 5397 5393 5389 5386 5383 5380 5378 5376 5375 5374
5552 5546 5539 5532 5526 5519 5512 5506 5499 5492 5485 5480 5476 5469 5461 5453 5447 5441 5435 5429 5424 5418 5413 5407 5402 5396 5391 5386 5382 5377 5372 5368 5364 5361 5359 5356 5355 5354
5546 5539 5533 5526 5521 5514 5506 5499 5491 5483 5476 5469 5464 5458 5451 5443 5434 5429 5425 5419 5412 5406 5400 5394 5388 5382 5377 5371 5366 5361 5355 5351 5347 5344 5341 5338 5337 5335
5538 5531 5525 5519 5512 5506 5498 5491 5482 5474 5466 5459 5452 5446 5439 5431 5424 5418 5411 5405 5400 5392 5387 5380 5373 5368 5362 5357 5350 5345 5339 5334 5330 5327 5324 5322 5320 5319
5531 5524 5517 5510 5503 5496 5489 5481 5474 5466 5457 5449 5442 5435 5429 5421 5413 5403 5395 5390 5385 5379 5371 5365 5357 5353 5347 5341 5334 5328 5323 5319 5315 5312 5309 5307 5305 5304
5524 5517 5509 5502 5494 5487 5479 5471 5463 5454 5446 5439 5432 5425 5417 5409 5399 5390 5381 5374 5368 5361 5354 5351 5343 5338 5332 5326 5319 5313 5309 5305 5302 5298 5296 5294 5292 5292
5516 5509 5502 5494 5486 5478 5470 5462 5454 5446 5436 5428 5421 5412 5402 5393 5383 5375 5367 5361 5354 5345 5337 5334 5330 5324 5319 5312 5305 5300 5296 5292 5289 5286 5284 5282 5281 5281
5506 5499 5492 5486 5477 5469 5461 5453 5444 5436 5425 5416 5407 5398 5389 5379 5369 5361 5353 5345 5341 5335 5326 5318 5315 5310 5305 5300 5294 5288 5283 5280 5278 5276 5274 5273 5272 5273
5497 5489 5481 5475 5467 5458 5452 5443 5433 5425 5415 5406 5396 5387 5377 5367 5357 5348 5339 5331 5325 5320 5314 5304 5299 5292 5291 5290 5282 5277 5274 5272 5270 5268 5267 5265 5265 5265
5487 5479 5472 5463 5456 5448 5440 5432 5422 5413 5404 5394 5385 5375 5365 5355 5345 5335 5325 5316 5309 5304 5297 5289 5284 5278 5272 5273 5272 5268 5266 5264 5263 5263 5262 5260 5260 5259
5478 5470 5462 5453 5444 5436 5428 5419 5409 5400 5391 5381 5372 5362 5353 5343 5333 5324 5314 5305 5297 5290 5284 5277 5272 5266 5262 5261 5261 5261 5259 5257 5257 5257 5257 5256 5257 5257
5466 5458 5450 5441 5433 5424 5415 5406 5397 5387 5378 5368 5359 5349 5339 5330 5321 5312 5304 5296 5288 5281 5275 5268 5262 5258 5253 5251 5251 5252 5252 5252 5251 5252 5252 5252 5254 5255
5453 5445 5436 5428 5420 5411 5402 5393 5384 5374 5364 5355 5345 5336 5326 5317 5309 5301 5294 5287 5281 5276 5268 5261 5255 5251 5248 5246 5245 5246 5246 5246 5247 5247 5248 5250 5252 5254
5441 5433 5425 5417 5408 5400 5390 5380 5371 5361 5351 5341 5331 5322 5313 5305 5298 5290 5283 5277 5271 5267 5262 5256 5250 5246 5244 5242 5242 5242 5243 5243 5243 5244 5245 5248 5252 5254
5430 5422 5414 5406 5397 5388 5378 5368 5358 5348 5338 5328 5319 5310 5302 5294 5287 5280 5273 5267 5262 5258 5254 5249 5244 5242 5242 5242 5239 5238 5239 5239 5240 5241 5243 5247 5252 5255
5419 5411 5403 5394 5385 5375 5365 5355 5345 5335 5325 5316 5307 5299 5291 5284 5277 5270 5264 5259 5254 5250 5246 5241 5238 5235 5235 5236 5238 5235 5234 5236 5238 5241 5243 5245 5249 5254
5407 5399 5391 5381 5372 5362 5352 5342 5332 5323 5314 5305 5297 5289 5281 5274 5268 5262 5257 5251 5247 5244 5240 5237 5233 5229 5227 5228 5230 5232 5233 5234 5236 5239 5242 5245 5249 5254
5395 5387 5378 5369 5359 5349 5339 5330 5321 5312 5304 5295 5288 5280 5273 5266 5261 5255 5250 5245 5241 5238 5235 5232 5229 5225 5224 5224 5227 5232 5235 5234 5234 5236 5240 5245 5251 5256
5383 5375 5366 5357 5347 5337 5328 5318 5310 5302 5294 5286 5279 5273 5266 5260 5254 5249 5245 5240 5236 5233 5230 5228 5226 5225 5224 5225 5226 5230 5233 5236 5238 5240 5242 5243 5245 5251
5372 5363 5354 5345 5336 5326 5317 5308 5300 5293 5286 5278 5272 5266 5260 5254 5249 5244 5240 5236 5232 5229 5227 5226 5225 5224 5224 5224 5225 5228 5231 5235 5239 5243 5246 5247 5248 5250